Time,TemperatureF,DewpointF,PressureIn,WindDirection,WindDirectionDegrees,WindSpeedMPH,WindSpeedGustMPH,Humidity,HourlyPrecipIn,Conditions,Clouds,dailyrainin,SolarRadiationWatts/m^2,SoftwareType,DateUTC
2013-05-26 00:01:00,61.1,56.9,30.18,South,174,1.2,0.0,86,0.00,CLR,,0.00,0.0,WeatherDisplay:10.37,2013-05-26 04:01:00,
2013-05-26 00:06:00,61.0,56.5,30.18,South,173,0.0,0.0,85,0.00,CLR,,0.00,0.0,WeatherDisplay:10.37,2013-05-26 04:06:00,
2013-05-26 00:11:00,61.0,56.5,30.18,South,173,0.0,0.0,85,0.00,CLR,,0.00,0.0,WeatherDisplay:10.37,2013-05-26 04:11:00,
2013-05-26 00:16:00,60.9,56.4,30.18,South,173,1.2,1.2,85,0.00,FEW,,0.00,0.0,WeatherDisplay:10.37,2013-05-26 04:16:00,
2013-05-26 00:21:00,60.9,56.7,30.18,South,174,1.2,0.0,86,0.00,FEW,,0.00,0.0,WeatherDisplay:10.37,2013-05-26 04:21:00,
2013-05-26 00:26:00,60.8,56.3,30.17,South,174,0.0,0.0,85,0.00,FEW,,0.00,0.0,WeatherDisplay:10.37,2013-05-26 04:26:00,
2013-05-26 00:31:00,60.9,56.7,30.17,South,174,0.0,0.0,86,0.00,FEW,,0.00,0.0,WeatherDisplay:10.37,2013-05-26 04:31:00,
2013-05-26 00:36:00,60.9,56.7,30.17,South,173,0.0,0.0,86,0.00,FEW,,0.00,0.0,WeatherDisplay:10.37,2013-05-26 04:36:00,
2013-05-26 00:41:00,60.8,56.6,30.17,South,174,0.0,0.0,86,0.00,FEW,,0.00,0.0,WeatherDisplay:10.37,2013-05-26 04:41:00,
2013-05-26 00:46:00,60.7,56.5,30.17,South,173,0.0,0.0,86,0.00,FEW,,0.00,0.0,WeatherDisplay:10.37,2013-05-26 04:46:00,
2013-05-26 00:51:00,60.6,56.7,30.17,South,174,0.0,0.0,87,0.00,FEW,,0.00,0.0,WeatherDisplay:10.37,2013-05-26 04:51:00,
2013-05-26 00:56:00,60.5,56.6,30.17,South,173,0.0,0.0,87,0.00,FEW,,0.00,0.0,WeatherDisplay:10.37,2013-05-26 04:56:00,
2013-05-26 01:01:00,60.4,56.8,30.17,South,174,0.0,0.0,88,0.00,CLR,,0.00,0.0,WeatherDisplay:10.37,2013-05-26 05:01:00,
2013-05-26 01:06:00,60.3,56.7,30.17,South,173,0.0,0.0,88,0.00,CLR,,0.00,0.0,WeatherDisplay:10.37,2013-05-26 05:06:00,
2013-05-26 01:11:00,60.2,56.6,30.17,South,173,0.0,0.0,88,0.00,CLR,,0.00,0.0,WeatherDisplay:10.37,2013-05-26 05:11:00,
2013-05-26 01:16:00,60.1,56.8,30.16,South,173,0.0,0.0,89,0.00,CLR,,0.00,0.0,WeatherDisplay:10.37,2013-05-26 05:16:00,
2013-05-26 01:21:00,60.0,56.7,30.16,South,173,0.0,0.0,89,0.00,CLR,,0.00,0.0,WeatherDisplay:10.37,2013-05-26 05:21:00,
2013-05-26 01:26:00,60.0,56.7,30.16,South,174,0.0,0.0,89,0.00,CLR,,0.00,0.0,WeatherDisplay:10.37,2013-05-26 05:26:00,
2013-05-26 01:31:00,59.9,56.6,30.16,South,174,0.0,0.0,89,0.00,CLR,,0.00,0.0,WeatherDisplay:10.37,2013-05-26 05:31:00,
2013-05-26 01:36:00,59.8,56.6,30.16,South,173,0.0,0.0,89,0.00,CLR,,0.00,0.0,WeatherDisplay:10.37,2013-05-26 05:36:00,
2013-05-26 01:41:00,59.7,56.8,30.16,South,173,0.0,0.0,90,0.00,CLR,,0.00,0.0,WeatherDisplay:10.37,2013-05-26 05:41:00,
2013-05-26 01:46:00,59.6,56.7,30.15,South,173,0.0,0.0,90,0.00,CLR,,0.00,0.0,WeatherDisplay:10.37,2013-05-26 05:46:00,
2013-05-26 01:51:00,59.6,56.7,30.15,South,174,0.0,0.0,90,0.00,CLR,,0.00,0.0,WeatherDisplay:10.37,2013-05-26 05:51:00,
2013-05-26 01:56:00,59.7,56.8,30.15,South,174,0.0,0.0,90,0.00,CLR,,0.00,0.0,WeatherDisplay:10.37,2013-05-26 05:56:00,
2013-05-26 02:01:00,59.6,56.7,30.15,South,173,0.0,0.0,90,0.00,CLR,,0.00,0.0,WeatherDisplay:10.37,2013-05-26 06:01:00,
2013-05-26 02:06:00,59.6,56.7,30.15,South,174,0.0,0.0,90,0.00,CLR,,0.00,0.0,WeatherDisplay:10.37,2013-05-26 06:06:00,
2013-05-26 02:11:00,59.5,56.6,30.15,South,173,0.0,0.0,90,0.00,CLR,,0.00,0.0,WeatherDisplay:10.37,2013-05-26 06:11:00,
2013-05-26 02:16:00,59.5,56.6,30.15,South,173,0.0,0.0,90,0.00,CLR,,0.00,0.0,WeatherDisplay:10.37,2013-05-26 06:16:00,
2013-05-26 02:21:00,59.4,56.8,30.15,South,174,0.0,0.0,91,0.00,CLR,,0.00,0.0,WeatherDisplay:10.37,2013-05-26 06:21:00,
2013-05-26 02:26:00,59.4,56.8,30.15,South,172,0.0,0.0,91,0.00,CLR,,0.00,0.0,WeatherDisplay:10.37,2013-05-26 06:26:00,
2013-05-26 02:31:00,59.3,56.7,30.15,South,174,0.0,0.0,91,0.00,CLR,,0.00,0.0,WeatherDisplay:10.37,2013-05-26 06:31:00,
2013-05-26 02:36:00,59.1,56.5,30.15,South,173,0.0,0.0,91,0.00,CLR,,0.00,0.0,WeatherDisplay:10.37,2013-05-26 06:36:00,
2013-05-26 02:41:00,59.1,56.5,30.15,South,174,0.0,0.0,91,0.00,CLR,,0.00,0.0,WeatherDisplay:10.37,2013-05-26 06:41:00,
2013-05-26 02:46:00,59.0,56.4,30.15,South,173,0.0,0.0,91,0.00,CLR,,0.00,0.0,WeatherDisplay:10.37,2013-05-26 06:46:00,
2013-05-26 02:51:00,58.9,56.6,30.15,South,173,0.0,0.0,92,0.00,CLR,,0.00,0.0,WeatherDisplay:10.37,2013-05-26 06:51:00,
2013-05-26 02:56:00,58.9,56.6,30.14,South,174,0.0,0.0,92,0.00,CLR,,0.00,0.0,WeatherDisplay:10.37,2013-05-26 06:56:00,
2013-05-26 03:01:00,59.0,56.7,30.14,South,174,0.0,0.0,92,0.00,CLR,,0.00,0.0,WeatherDisplay:10.37,2013-05-26 07:01:00,
2013-05-26 03:06:00,59.0,56.7,30.14,South,173,0.0,0.0,92,0.00,CLR,,0.00,0.0,WeatherDisplay:10.37,2013-05-26 07:06:00,
2013-05-26 03:11:00,58.9,56.6,30.15,South,174,0.0,0.0,92,0.00,CLR,,0.00,0.0,WeatherDisplay:10.37,2013-05-26 07:11:00,
2013-05-26 03:16:00,58.9,56.6,30.15,South,174,0.0,0.0,92,0.00,CLR,,0.00,0.0,WeatherDisplay:10.37,2013-05-26 07:16:00,
2013-05-26 03:21:00,58.8,56.5,30.14,South,173,0.0,0.0,92,0.00,CLR,,0.00,0.0,WeatherDisplay:10.37,2013-05-26 07:21:00,
2013-05-26 03:26:00,58.8,56.5,30.14,South,174,0.0,0.0,92,0.00,CLR,,0.00,0.0,WeatherDisplay:10.37,2013-05-26 07:26:00,
2013-05-26 03:31:00,58.7,56.4,30.15,South,176,0.0,0.1,92,0.00,CLR,,0.00,0.0,WeatherDisplay:10.37,2013-05-26 07:31:00,
2013-05-26 03:36:00,58.6,56.6,30.15,WNW,286,0.0,0.0,93,0.00,CLR,,0.00,0.0,WeatherDisplay:10.37,2013-05-26 07:36:00,
2013-05-26 03:41:00,58.6,56.6,30.15,WNW,287,0.0,0.0,93,0.00,CLR,,0.00,0.0,WeatherDisplay:10.37,2013-05-26 07:41:00,
2013-05-26 03:46:00,58.6,56.6,30.15,WNW,286,0.0,0.0,93,0.00,CLR,,0.00,0.0,WeatherDisplay:10.37,2013-05-26 07:46:00,
2013-05-26 03:51:00,58.6,56.6,30.15,WNW,287,0.0,0.0,93,0.00,CLR,,0.00,0.0,WeatherDisplay:10.37,2013-05-26 07:51:00,
2013-05-26 03:56:00,58.5,56.5,30.15,WNW,286,0.0,0.0,93,0.00,CLR,,0.00,0.0,WeatherDisplay:10.37,2013-05-26 07:56:00,
2013-05-26 04:01:00,58.4,56.4,30.15,WNW,287,0.0,0.0,93,0.00,CLR,,0.00,0.0,WeatherDisplay:10.37,2013-05-26 08:01:00,
2013-05-26 04:06:00,58.3,56.3,30.15,WNW,286,0.0,0.0,93,0.00,CLR,,0.00,0.0,WeatherDisplay:10.37,2013-05-26 08:06:00,
2013-05-26 04:11:00,58.2,56.2,30.15,WNW,285,0.0,0.0,93,0.00,CLR,,0.00,0.0,WeatherDisplay:10.37,2013-05-26 08:11:00,
2013-05-26 04:16:00,58.1,56.1,30.15,WNW,286,0.0,0.0,93,0.00,CLR,,0.00,0.0,WeatherDisplay:10.37,2013-05-26 08:16:00,
2013-05-26 04:21:00,58.0,56.3,30.16,WNW,286,0.0,0.0,94,0.00,CLR,,0.00,0.0,WeatherDisplay:10.37,2013-05-26 08:21:00,
2013-05-26 04:26:00,58.0,56.3,30.16,WNW,285,0.0,0.0,94,0.00,CLR,,0.00,0.0,WeatherDisplay:10.37,2013-05-26 08:26:00,
2013-05-26 04:31:00,58.0,56.3,30.16,WNW,285,0.0,0.0,94,0.00,CLR,,0.00,0.0,WeatherDisplay:10.37,2013-05-26 08:31:00,
2013-05-26 04:36:00,57.9,56.2,30.16,WNW,286,0.0,0.0,94,0.00,CLR,,0.00,0.0,WeatherDisplay:10.37,2013-05-26 08:36:00,
2013-05-26 04:41:00,57.8,56.1,30.16,WNW,285,0.0,0.0,94,0.00,CLR,,0.00,0.0,WeatherDisplay:10.37,2013-05-26 08:41:00,
2013-05-26 04:46:00,57.7,56.0,30.16,WNW,286,0.0,0.0,94,0.00,CLR,,0.00,0.0,WeatherDisplay:10.37,2013-05-26 08:46:00,
2013-05-26 04:51:00,57.6,55.9,30.16,WNW,286,0.0,0.0,94,0.00,CLR,,0.00,0.0,WeatherDisplay:10.37,2013-05-26 08:51:00,
2013-05-26 04:56:00,57.6,56.2,30.16,WNW,285,0.0,0.0,95,0.00,CLR,,0.00,0.0,WeatherDisplay:10.37,2013-05-26 08:56:00,
2013-05-26 05:01:00,57.6,56.2,30.17,WNW,286,0.0,0.0,95,0.00,CLR,,0.00,0.0,WeatherDisplay:10.37,2013-05-26 09:01:00,
2013-05-26 05:06:00,57.5,56.1,30.17,WNW,287,0.0,0.0,95,0.00,CLR,,0.00,0.0,WeatherDisplay:10.37,2013-05-26 09:06:00,
2013-05-26 05:11:00,57.5,56.1,30.17,WNW,287,0.0,0.0,95,0.00,CLR,,0.00,0.0,WeatherDisplay:10.37,2013-05-26 09:11:00,
2013-05-26 05:16:00,57.4,56.0,30.17,WNW,286,0.0,0.0,95,0.00,SCT,,0.00,0.0,WeatherDisplay:10.37,2013-05-26 09:16:00,
2013-05-26 05:21:00,57.3,55.9,30.17,WNW,287,0.0,0.0,95,0.00,SCT,,0.00,0.0,WeatherDisplay:10.37,2013-05-26 09:21:00,
2013-05-26 05:26:00,57.2,55.8,30.17,WNW,287,0.0,0.0,95,0.00,SCT,,0.00,0.0,WeatherDisplay:10.37,2013-05-26 09:26:00,
2013-05-26 05:31:00,57.1,55.7,30.17,WNW,286,0.0,0.0,95,0.00,SCT,,0.00,0.0,WeatherDisplay:10.37,2013-05-26 09:31:00,
2013-05-26 05:36:00,57.1,55.7,30.17,WNW,287,0.0,0.0,95,0.00,SCT,,0.00,0.0,WeatherDisplay:10.37,2013-05-26 09:36:00,
2013-05-26 05:41:00,57.0,55.6,30.17,WNW,286,0.0,0.0,95,0.00,SCT,,0.00,0.0,WeatherDisplay:10.37,2013-05-26 09:41:00,
2013-05-26 05:46:00,57.0,55.6,30.17,WNW,286,0.0,0.0,95,0.00,SCT,,0.00,0.0,WeatherDisplay:10.37,2013-05-26 09:46:00,
2013-05-26 05:51:00,56.9,55.5,30.17,WNW,286,0.0,0.0,95,0.00,SCT,,0.00,0.0,WeatherDisplay:10.37,2013-05-26 09:51:00,
2013-05-26 05:56:00,56.8,55.4,30.17,WNW,287,0.0,0.0,95,0.00,SCT,,0.00,0.0,WeatherDisplay:10.37,2013-05-26 09:56:00,
2013-05-26 06:01:00,56.7,55.3,30.17,WNW,286,0.0,0.0,95,0.00,SCT,,0.00,0.0,WeatherDisplay:10.37,2013-05-26 10:01:00,
2013-05-26 06:06:00,56.6,55.2,30.17,WNW,286,0.0,0.0,95,0.00,SCT,,0.00,0.0,WeatherDisplay:10.37,2013-05-26 10:06:00,
2013-05-26 06:11:00,56.6,55.5,30.18,WNW,287,0.0,0.0,96,0.00,SCT,,0.00,0.0,WeatherDisplay:10.37,2013-05-26 10:11:00,
2013-05-26 06:16:00,56.6,55.5,30.18,WNW,287,0.0,0.0,96,0.00,SCT,,0.00,0.0,WeatherDisplay:10.37,2013-05-26 10:16:00,
2013-05-26 06:21:00,56.5,55.4,30.18,WNW,287,0.0,0.0,96,0.00,SCT,,0.00,0.0,WeatherDisplay:10.37,2013-05-26 10:21:00,
2013-05-26 06:26:00,56.4,55.0,30.18,WNW,287,0.0,0.0,95,0.00,SCT,,0.00,0.0,WeatherDisplay:10.37,2013-05-26 10:26:00,
2013-05-26 06:31:00,56.4,55.3,30.18,WNW,287,0.0,0.0,96,0.00,SCT,,0.00,0.0,WeatherDisplay:10.37,2013-05-26 10:31:00,
2013-05-26 06:36:00,56.4,55.3,30.18,WNW,285,0.0,0.0,96,0.00,SCT,,0.00,0.0,WeatherDisplay:10.37,2013-05-26 10:36:00,
2013-05-26 06:41:00,56.4,55.3,30.18,WNW,285,0.0,0.0,96,0.00,SCT,,0.00,0.0,WeatherDisplay:10.37,2013-05-26 10:41:00,
2013-05-26 06:46:00,56.5,55.7,30.18,WNW,286,0.0,0.0,97,0.00,SCT,,0.00,0.0,WeatherDisplay:10.37,2013-05-26 10:46:00,
2013-05-26 06:51:00,56.7,55.9,30.18,WNW,285,0.0,0.0,97,0.00,SCT,,0.00,0.0,WeatherDisplay:10.37,2013-05-26 10:51:00,
2013-05-26 06:56:00,56.8,56.0,30.19,WNW,287,0.0,0.0,97,0.00,SCT,,0.00,0.0,WeatherDisplay:10.37,2013-05-26 10:56:00,
2013-05-26 07:01:00,56.9,56.1,30.19,WNW,285,0.0,0.0,97,0.00,SCT,,0.00,0.0,WeatherDisplay:10.37,2013-05-26 11:01:00,
2013-05-26 07:06:00,57.3,56.5,30.19,WNW,285,0.0,0.0,97,0.00,SCT,,0.00,0.0,WeatherDisplay:10.37,2013-05-26 11:06:00,
2013-05-26 07:11:00,57.5,56.7,30.20,WNW,287,0.0,0.0,97,0.00,SCT,,0.00,0.0,WeatherDisplay:10.37,2013-05-26 11:11:00,
2013-05-26 07:16:00,57.7,57.1,30.20,WNW,287,0.0,0.0,98,0.00,SCT,,0.00,0.0,WeatherDisplay:10.37,2013-05-26 11:16:00,
2013-05-26 07:21:00,58.0,57.4,30.20,WNW,287,0.0,0.0,98,0.00,SCT,,0.00,0.0,WeatherDisplay:10.37,2013-05-26 11:21:00,
2013-05-26 07:26:00,58.4,57.8,30.20,WNW,286,0.0,0.0,98,0.00,SCT,,0.00,0.0,WeatherDisplay:10.37,2013-05-26 11:26:00,
2013-05-26 07:31:00,58.7,58.1,30.20,WNW,287,0.0,0.0,98,0.00,SCT,,0.00,0.0,WeatherDisplay:10.37,2013-05-26 11:31:00,
2013-05-26 07:36:00,59.1,58.5,30.21,WNW,286,0.0,0.0,98,0.00,SCT,,0.00,0.0,WeatherDisplay:10.37,2013-05-26 11:36:00,
2013-05-26 07:41:00,59.5,58.9,30.21,WNW,287,0.0,0.0,98,0.00,SCT,,0.00,0.0,WeatherDisplay:10.37,2013-05-26 11:41:00,
2013-05-26 07:46:00,60.0,59.4,30.21,WNW,286,0.0,0.0,98,0.00,SCT,,0.00,0.0,WeatherDisplay:10.37,2013-05-26 11:46:00,
2013-05-26 07:51:00,60.4,59.8,30.21,WNW,287,0.0,0.0,98,0.00,SCT,,0.00,0.0,WeatherDisplay:10.37,2013-05-26 11:51:00,
2013-05-26 07:56:00,60.9,60.0,30.21,WNW,287,0.0,0.0,97,0.00,SCT,,0.00,0.0,WeatherDisplay:10.37,2013-05-26 11:56:00,
2013-05-26 08:01:00,61.3,60.2,30.21,WNW,287,0.0,0.0,96,0.00,SCT,,0.00,0.0,WeatherDisplay:10.37,2013-05-26 12:01:00,
2013-05-26 08:06:00,62.0,60.8,30.21,WNW,287,0.0,0.0,96,0.00,SCT,,0.00,0.0,WeatherDisplay:10.37,2013-05-26 12:06:00,
2013-05-26 08:11:00,62.9,61.1,30.21,WNW,287,0.0,0.0,94,0.00,SCT,,0.00,0.0,WeatherDisplay:10.37,2013-05-26 12:11:00,
2013-05-26 08:16:00,64.1,61.4,30.21,WSW,246,0.0,0.0,91,0.00,SCT,,0.00,0.0,WeatherDisplay:10.37,2013-05-26 12:16:00,
2013-05-26 08:21:00,65.2,61.6,30.21,WSW,237,1.2,1.2,88,0.00,SCT,,0.00,0.0,WeatherDisplay:10.37,2013-05-26 12:21:00,
2013-05-26 08:26:00,66.1,61.8,30.22,WSW,238,1.2,0.0,86,0.00,SCT,,0.00,0.0,WeatherDisplay:10.37,2013-05-26 12:26:00,
2013-05-26 08:31:00,66.9,62.2,30.21,WSW,237,2.0,2.0,85,0.00,SCT,,0.00,0.0,WeatherDisplay:10.37,2013-05-26 12:31:00,
2013-05-26 08:36:00,67.9,62.2,30.21,WSW,237,0.0,0.0,82,0.00,SCT,,0.00,0.0,WeatherDisplay:10.37,2013-05-26 12:36:00,
2013-05-26 08:41:00,68.7,62.3,30.21,NW,310,1.2,1.2,80,0.00,SCT,,0.00,0.0,WeatherDisplay:10.37,2013-05-26 12:41:00,
2013-05-26 08:46:00,69.3,63.2,30.22,NW,309,1.2,1.2,81,0.00,SCT,,0.00,0.0,WeatherDisplay:10.37,2013-05-26 12:46:00,
2013-05-26 08:51:00,69.9,62.4,30.22,WSW,238,1.2,1.2,77,0.00,SCT,,0.00,0.0,WeatherDisplay:10.37,2013-05-26 12:51:00,
2013-05-26 08:56:00,70.6,62.7,30.23,WSW,240,1.2,1.2,76,0.00,SCT,,0.00,0.0,WeatherDisplay:10.37,2013-05-26 12:56:00,
2013-05-26 09:01:00,71.0,62.3,30.23,WSW,238,1.2,1.2,74,0.00,SCT,,0.00,0.0,WeatherDisplay:10.37,2013-05-26 13:01:00,
2013-05-26 09:06:00,71.4,62.7,30.23,WSW,239,1.2,0.0,74,0.00,SCT,,0.00,0.0,WeatherDisplay:10.37,2013-05-26 13:06:00,
2013-05-26 09:11:00,71.9,63.2,30.23,WSW,240,1.2,1.2,74,0.00,SCT,,0.00,0.0,WeatherDisplay:10.37,2013-05-26 13:11:00,
2013-05-26 09:16:00,72.4,62.9,30.23,SW,226,3.5,3.5,72,0.00,SCT,,0.00,0.0,WeatherDisplay:10.37,2013-05-26 13:16:00,
2013-05-26 09:21:00,73.0,62.2,30.23,WSW,251,2.3,2.3,69,0.00,SCT,,0.00,0.0,WeatherDisplay:10.37,2013-05-26 13:21:00,
2013-05-26 09:26:00,73.5,62.3,30.23,NNW,327,1.2,1.2,68,0.00,SCT,,0.00,0.0,WeatherDisplay:10.37,2013-05-26 13:26:00,
2013-05-26 09:31:00,74.0,62.8,30.23,NNE,19,1.2,1.2,68,0.00,SCT,,0.00,0.0,WeatherDisplay:10.37,2013-05-26 13:31:00,
2013-05-26 09:36:00,74.4,63.1,30.23,NNE,21,1.2,1.2,68,0.00,SCT,,0.00,0.0,WeatherDisplay:10.37,2013-05-26 13:36:00,
2013-05-26 09:41:00,74.8,61.8,30.23,WSW,256,2.3,2.3,64,0.00,SCT,,0.00,0.0,WeatherDisplay:10.37,2013-05-26 13:41:00,
2013-05-26 09:46:00,75.2,61.7,30.23,SW,234,1.2,1.2,63,0.00,SCT,,0.00,0.0,WeatherDisplay:10.37,2013-05-26 13:46:00,
2013-05-26 09:51:00,75.5,62.0,30.23,SW,231,3.5,3.5,63,0.00,SCT,,0.00,0.0,WeatherDisplay:10.37,2013-05-26 13:51:00,
2013-05-26 09:56:00,75.8,62.3,30.23,SW,228,1.2,1.2,63,0.00,SCT,,0.00,0.0,WeatherDisplay:10.37,2013-05-26 13:56:00,
2013-05-26 10:01:00,76.2,62.2,30.24,SW,229,1.2,0.0,62,0.00,SCT,,0.00,0.0,WeatherDisplay:10.37,2013-05-26 14:01:00,
2013-05-26 10:06:00,76.6,62.1,30.24,SW,235,2.3,2.3,61,0.00,SCT,,0.00,0.0,WeatherDisplay:10.37,2013-05-26 14:06:00,
2013-05-26 10:11:00,76.9,60.5,30.24,SW,228,2.3,2.3,57,0.00,SCT,,0.00,0.0,WeatherDisplay:10.37,2013-05-26 14:11:00,
2013-05-26 10:16:00,77.1,60.7,30.24,South,177,3.5,3.5,57,0.00,SCT,,0.00,0.0,WeatherDisplay:10.37,2013-05-26 14:16:00,
2013-05-26 10:21:00,77.3,60.9,30.24,East,100,2.3,2.3,57,0.00,SCT,,0.00,0.0,WeatherDisplay:10.37,2013-05-26 14:21:00,
2013-05-26 10:26:00,77.7,61.7,30.24,NE,53,3.5,3.5,58,0.00,SCT,,0.00,0.0,WeatherDisplay:10.37,2013-05-26 14:26:00,
2013-05-26 10:31:00,77.8,61.3,30.23,SW,218,3.5,3.5,57,0.00,SCT,,0.00,0.0,WeatherDisplay:10.37,2013-05-26 14:31:00,
2013-05-26 10:36:00,77.9,62.4,30.24,NW,308,3.5,3.5,59,0.00,SCT,,0.00,0.0,WeatherDisplay:10.37,2013-05-26 14:36:00,
2013-05-26 10:41:00,78.2,61.7,30.24,NW,315,3.5,3.5,57,0.00,SCT,,0.00,0.0,WeatherDisplay:10.37,2013-05-26 14:41:00,
2013-05-26 10:46:00,78.2,61.2,30.24,NNE,16,3.5,3.5,56,0.00,SCT,,0.00,0.0,WeatherDisplay:10.37,2013-05-26 14:46:00,
2013-05-26 10:51:00,78.6,61.1,30.24,NE,45,3.5,3.5,55,0.00,SCT,,0.00,0.0,WeatherDisplay:10.37,2013-05-26 14:51:00,
2013-05-26 10:56:00,78.5,62.0,30.23,NE,37,3.5,3.5,57,0.00,SCT,,0.00,0.0,WeatherDisplay:10.37,2013-05-26 14:56:00,
2013-05-26 11:01:00,78.5,61.0,30.23,NW,324,4.6,4.6,55,0.00,SCT,,0.00,0.0,WeatherDisplay:10.37,2013-05-26 15:01:00,
2013-05-26 11:06:00,78.5,60.5,30.23,NW,308,6.9,6.9,54,0.00,SCT,,0.00,0.0,WeatherDisplay:10.37,2013-05-26 15:06:00,
2013-05-26 11:11:00,78.5,61.5,30.23,NE,45,2.3,2.3,56,0.00,SCT,,0.00,0.0,WeatherDisplay:10.37,2013-05-26 15:11:00,
2013-05-26 11:16:00,78.8,60.2,30.23,WSW,239,4.6,4.6,53,0.00,SCT,,0.00,0.0,WeatherDisplay:10.37,2013-05-26 15:16:00,
2013-05-26 11:21:00,79.0,60.9,30.23,North,4,3.5,3.5,54,0.00,SCT,,0.00,0.0,WeatherDisplay:10.37,2013-05-26 15:21:00,
2013-05-26 11:26:00,79.1,60.0,30.22,NNE,14,3.5,3.5,52,0.00,SCT,,0.00,0.0,WeatherDisplay:10.37,2013-05-26 15:26:00,
2013-05-26 11:31:00,79.1,61.0,30.22,NNW,340,8.1,8.1,54,0.00,SCT,,0.00,0.0,WeatherDisplay:10.37,2013-05-26 15:31:00,
2013-05-26 11:36:00,79.1,60.5,30.22,NNE,26,3.5,3.5,53,0.00,SCT,,0.00,0.0,WeatherDisplay:10.37,2013-05-26 15:36:00,
2013-05-26 11:41:00,78.9,60.8,30.22,West,268,1.2,1.2,54,0.00,SCT,,0.00,0.0,WeatherDisplay:10.37,2013-05-26 15:41:00,
2013-05-26 11:46:00,79.1,61.5,30.22,SSW,195,2.3,2.3,55,0.00,SCT,,0.00,0.0,WeatherDisplay:10.37,2013-05-26 15:46:00,
2013-05-26 11:51:00,79.7,62.1,30.22,North,354,3.5,3.5,55,0.00,SCT,,0.00,0.0,WeatherDisplay:10.37,2013-05-26 15:51:00,
2013-05-26 11:56:00,80.2,61.0,30.22,North,4,3.5,3.5,52,0.00,SCT,,0.00,0.0,WeatherDisplay:10.37,2013-05-26 15:56:00,
2013-05-26 12:01:00,80.3,61.6,30.22,NNE,30,2.3,2.3,53,0.00,SCT,,0.00,0.0,WeatherDisplay:10.37,2013-05-26 16:01:00,
2013-05-26 12:06:00,80.3,61.1,30.22,NNE,23,3.5,3.5,52,0.00,SCT,,0.00,0.0,WeatherDisplay:10.37,2013-05-26 16:06:00,
2013-05-26 12:11:00,80.6,62.4,30.22,NNE,27,2.3,2.3,54,0.00,SCT,,0.00,0.0,WeatherDisplay:10.37,2013-05-26 16:11:00,
2013-05-26 12:16:00,80.4,60.1,30.22,NNW,337,5.8,5.8,50,0.00,SCT,,0.00,0.0,WeatherDisplay:10.37,2013-05-26 16:16:00,
2013-05-26 12:21:00,80.3,60.0,30.22,North,4,8.1,8.1,50,0.00,SCT,,0.00,0.0,WeatherDisplay:10.37,2013-05-26 16:21:00,
2013-05-26 12:26:00,80.3,60.5,30.21,North,10,5.0,5.0,51,0.00,SCT,,0.00,0.0,WeatherDisplay:10.37,2013-05-26 16:26:00,
2013-05-26 12:31:00,80.5,60.7,30.21,North,4,4.6,4.6,51,0.00,SCT,,0.00,0.0,WeatherDisplay:10.37,2013-05-26 16:31:00,
2013-05-26 12:36:00,80.7,61.4,30.21,North,4,3.5,3.5,52,0.00,SCT,,0.00,0.0,WeatherDisplay:10.37,2013-05-26 16:36:00,
2013-05-26 12:41:00,80.8,63.1,30.21,NNE,25,1.2,1.2,55,0.00,SCT,,0.00,0.0,WeatherDisplay:10.37,2013-05-26 16:41:00,
2013-05-26 12:46:00,81.0,59.5,30.21,NNE,25,6.9,6.9,48,0.00,SCT,,0.00,0.0,WeatherDisplay:10.37,2013-05-26 16:46:00,
2013-05-26 12:51:00,81.0,62.3,30.20,NE,38,2.3,2.3,53,0.00,SCT,,0.00,0.0,WeatherDisplay:10.37,2013-05-26 16:51:00,
2013-05-26 12:56:00,81.5,61.1,30.20,North,9,2.3,2.3,50,0.00,SCT,,0.00,0.0,WeatherDisplay:10.37,2013-05-26 16:56:00,
2013-05-26 13:01:00,81.6,59.4,30.20,North,359,3.5,3.5,47,0.00,SCT,,0.00,0.0,WeatherDisplay:10.37,2013-05-26 17:01:00,
2013-05-26 13:06:00,81.6,60.0,30.20,WNW,286,3.5,3.5,48,0.00,SCT,,0.00,0.0,WeatherDisplay:10.37,2013-05-26 17:06:00,
2013-05-26 13:11:00,82.0,61.0,30.20,SSW,196,2.3,2.3,49,0.00,SCT,,0.00,0.0,WeatherDisplay:10.37,2013-05-26 17:11:00,
2013-05-26 13:16:00,82.0,59.2,30.20,East,85,2.3,2.3,46,0.00,SCT,,0.00,0.0,WeatherDisplay:10.37,2013-05-26 17:16:00,
2013-05-26 13:21:00,82.2,61.7,30.20,South,183,3.5,3.5,50,0.00,SCT,,0.00,0.0,WeatherDisplay:10.37,2013-05-26 17:21:00,
2013-05-26 13:26:00,82.5,61.4,30.20,South,181,1.2,1.2,49,0.00,SCT,,0.00,0.0,WeatherDisplay:10.37,2013-05-26 17:26:00,
2013-05-26 13:31:00,82.6,61.5,30.20,NW,314,2.3,2.3,49,0.00,SCT,,0.00,0.0,WeatherDisplay:10.37,2013-05-26 17:31:00,
2013-05-26 13:36:00,82.5,60.8,30.19,NE,54,2.3,2.3,48,0.00,SCT,,0.00,0.0,WeatherDisplay:10.37,2013-05-26 17:36:00,
2013-05-26 13:41:00,82.9,61.8,30.19,NNE,25,3.5,3.5,49,0.00,SCT,,0.00,0.0,WeatherDisplay:10.37,2013-05-26 17:41:00,
2013-05-26 13:46:00,83.0,60.1,30.19,NE,35,1.2,1.2,46,0.00,SCT,,0.00,0.0,WeatherDisplay:10.37,2013-05-26 17:46:00,
2013-05-26 13:51:00,83.2,62.1,30.19,NNE,31,2.3,2.3,49,0.00,SCT,,0.00,0.0,WeatherDisplay:10.37,2013-05-26 17:51:00,
2013-05-26 13:56:00,83.4,59.8,30.19,SSE,165,3.5,3.5,45,0.00,SCT,,0.00,0.0,WeatherDisplay:10.37,2013-05-26 17:56:00,
2013-05-26 14:01:00,83.3,61.6,30.19,NNE,33,1.2,1.2,48,0.00,SCT,,0.00,0.0,WeatherDisplay:10.37,2013-05-26 18:01:00,
2013-05-26 14:06:00,83.5,63.5,30.18,SSE,166,8.1,8.1,51,0.00,SCT,,0.00,0.0,WeatherDisplay:10.37,2013-05-26 18:06:00,
2013-05-26 14:11:00,83.7,62.5,30.18,South,174,9.2,9.2,49,0.00,SCT,,0.00,0.0,WeatherDisplay:10.37,2013-05-26 18:11:00,
2013-05-26 14:16:00,83.8,63.7,30.18,South,178,2.3,2.3,51,0.00,SCT,,0.00,0.0,WeatherDisplay:10.37,2013-05-26 18:16:00,
2013-05-26 14:21:00,83.6,62.4,30.18,South,173,10.4,10.4,49,0.00,SCT,,0.00,0.0,WeatherDisplay:10.37,2013-05-26 18:21:00,
2013-05-26 14:26:00,83.4,64.5,30.18,SSE,156,11.5,11.5,53,0.00,SCT,,0.00,0.0,WeatherDisplay:10.37,2013-05-26 18:26:00,
2013-05-26 14:31:00,83.1,64.2,30.17,ESE,120,8.1,8.1,53,0.00,SCT,,0.00,0.0,WeatherDisplay:10.37,2013-05-26 18:31:00,
2013-05-26 14:36:00,83.3,66.0,30.17,SSE,157,6.9,6.9,56,0.00,SCT,,0.00,0.0,WeatherDisplay:10.37,2013-05-26 18:36:00,
2013-05-26 14:41:00,83.7,64.2,30.17,SE,141,9.2,9.2,52,0.00,SCT,,0.00,0.0,WeatherDisplay:10.37,2013-05-26 18:41:00,
2013-05-26 14:46:00,83.5,64.6,30.17,SSE,158,3.5,3.5,53,0.00,SCT,,0.00,0.0,WeatherDisplay:10.37,2013-05-26 18:46:00,
2013-05-26 14:51:00,83.4,63.4,30.16,ENE,64,12.7,12.7,51,0.00,SCT,,0.00,0.0,WeatherDisplay:10.37,2013-05-26 18:51:00,
2013-05-26 14:56:00,83.2,64.3,30.17,SE,131,10.4,10.4,53,0.00,SCT,,0.00,0.0,WeatherDisplay:10.37,2013-05-26 18:56:00,
2013-05-26 15:01:00,82.5,64.2,30.16,South,186,8.1,8.1,54,0.00,SCT,,0.00,0.0,WeatherDisplay:10.37,2013-05-26 19:01:00,
2013-05-26 15:06:00,82.3,64.5,30.16,South,181,12.7,12.7,55,0.00,SCT,,0.00,0.0,WeatherDisplay:10.37,2013-05-26 19:06:00,
2013-05-26 15:11:00,82.6,65.8,30.16,ESE,111,13.8,13.8,57,0.00,SCT,,0.00,0.0,WeatherDisplay:10.37,2013-05-26 19:11:00,
2013-05-26 15:16:00,83.1,64.7,30.16,ESE,114,8.1,8.1,54,0.00,SCT,,0.00,0.0,WeatherDisplay:10.37,2013-05-26 19:16:00,
2013-05-26 15:21:00,83.3,64.4,30.16,SSE,156,6.9,6.9,53,0.00,SCT,,0.00,0.0,WeatherDisplay:10.37,2013-05-26 19:21:00,
2013-05-26 15:26:00,83.3,64.9,30.16,South,174,2.3,2.3,54,0.00,SCT,,0.00,0.0,WeatherDisplay:10.37,2013-05-26 19:26:00,
2013-05-26 15:31:00,83.4,63.4,30.16,SE,143,8.1,8.1,51,0.00,SCT,,0.00,0.0,WeatherDisplay:10.37,2013-05-26 19:31:00,
2013-05-26 15:36:00,83.7,63.1,30.16,SE,134,6.9,6.9,50,0.00,SCT,,0.00,0.0,WeatherDisplay:10.37,2013-05-26 19:36:00,
2013-05-26 15:41:00,83.6,64.7,30.16,SSW,204,3.5,3.5,53,0.00,SCT,,0.00,0.0,WeatherDisplay:10.37,2013-05-26 19:41:00,
2013-05-26 15:46:00,83.3,63.8,30.16,SW,221,3.5,3.5,52,0.00,SCT,,0.00,0.0,WeatherDisplay:10.37,2013-05-26 19:46:00,
2013-05-26 15:51:00,83.2,63.7,30.15,SW,217,6.9,6.9,52,0.00,SCT,,0.00,0.0,WeatherDisplay:10.37,2013-05-26 19:51:00,
2013-05-26 15:56:00,83.3,63.3,30.15,South,183,4.6,4.6,51,0.00,SCT,,0.00,0.0,WeatherDisplay:10.37,2013-05-26 19:56:00,
2013-05-26 16:01:00,83.3,63.3,30.15,WSW,239,3.5,3.5,51,0.00,SCT,,0.00,0.0,WeatherDisplay:10.37,2013-05-26 20:01:00,
2013-05-26 16:06:00,83.2,63.2,30.15,West,266,4.6,4.6,51,0.00,SCT,,0.00,0.0,WeatherDisplay:10.37,2013-05-26 20:06:00,
2013-05-26 16:11:00,83.1,62.5,30.15,SSW,206,2.3,2.3,50,0.00,SCT,,0.00,0.0,WeatherDisplay:10.37,2013-05-26 20:11:00,
2013-05-26 16:16:00,82.7,60.4,30.15,ESE,121,12.7,12.7,47,0.00,SCT,,0.00,0.0,WeatherDisplay:10.37,2013-05-26 20:16:00,
2013-05-26 16:21:00,81.9,61.4,30.15,SW,235,5.8,5.8,50,0.00,SCT,,0.00,0.0,WeatherDisplay:10.37,2013-05-26 20:21:00,
2013-05-26 16:26:00,81.0,61.2,30.14,ESE,109,8.1,8.1,51,0.00,SCT,,0.00,0.0,WeatherDisplay:10.37,2013-05-26 20:26:00,
2013-05-26 16:31:00,80.5,60.7,30.14,East,100,11.5,11.5,51,0.00,SCT,,0.00,0.0,WeatherDisplay:10.37,2013-05-26 20:31:00,
2013-05-26 16:36:00,80.1,60.9,30.14,ESE,106,6.9,6.9,52,0.00,SCT,,0.00,0.0,WeatherDisplay:10.37,2013-05-26 20:36:00,
2013-05-26 16:41:00,79.6,61.0,30.14,East,89,2.3,2.3,53,0.00,SCT,,0.00,0.0,WeatherDisplay:10.37,2013-05-26 20:41:00,
2013-05-26 16:46:00,79.4,60.8,30.14,SSE,167,10.4,10.4,53,0.00,SCT,,0.00,0.0,WeatherDisplay:10.37,2013-05-26 20:46:00,
2013-05-26 16:51:00,79.1,61.0,30.14,South,190,5.8,5.8,54,0.00,SCT,,0.00,0.0,WeatherDisplay:10.37,2013-05-26 20:51:00,
2013-05-26 16:56:00,78.9,60.3,30.14,SW,222,4.6,4.6,53,0.00,SCT,,0.00,0.0,WeatherDisplay:10.37,2013-05-26 20:56:00,
2013-05-26 17:01:00,78.6,60.0,30.14,South,175,8.1,8.1,53,0.00,SCT,,0.00,0.0,WeatherDisplay:10.37,2013-05-26 21:01:00,
2013-05-26 17:06:00,78.5,59.4,30.14,SSE,156,4.6,4.6,52,0.00,SCT,,0.00,0.0,WeatherDisplay:10.37,2013-05-26 21:06:00,
2013-05-26 17:11:00,78.4,59.9,30.14,South,181,6.9,6.9,53,0.00,SCT,,0.00,0.0,WeatherDisplay:10.37,2013-05-26 21:11:00,
2013-05-26 17:16:00,78.2,58.6,30.14,SSE,158,4.6,4.6,51,0.00,SCT,,0.00,0.0,WeatherDisplay:10.37,2013-05-26 21:16:00,
2013-05-26 17:21:00,78.0,60.0,30.14,South,181,11.5,11.5,54,0.00,SCT,,0.00,0.0,WeatherDisplay:10.37,2013-05-26 21:21:00,
2013-05-26 17:26:00,77.9,58.9,30.14,South,179,10.4,10.4,52,0.00,SCT,,0.00,0.0,WeatherDisplay:10.37,2013-05-26 21:26:00,
2013-05-26 17:31:00,77.8,59.3,30.14,NNE,13,3.5,3.5,53,0.00,SCT,,0.00,0.0,WeatherDisplay:10.37,2013-05-26 21:31:00,
2013-05-26 17:36:00,77.5,59.0,30.14,SSW,204,8.1,8.1,53,0.00,SCT,,0.00,0.0,WeatherDisplay:10.37,2013-05-26 21:36:00,
2013-05-26 17:41:00,77.4,59.5,30.14,WSW,237,5.8,5.8,54,0.00,SCT,,0.00,0.0,WeatherDisplay:10.37,2013-05-26 21:41:00,
2013-05-26 17:46:00,77.3,59.4,30.14,South,177,11.5,11.5,54,0.00,SCT,,0.00,0.0,WeatherDisplay:10.37,2013-05-26 21:46:00,
2013-05-26 17:51:00,77.0,59.1,30.14,SSE,148,9.2,9.2,54,0.00,SCT,,0.00,0.0,WeatherDisplay:10.37,2013-05-26 21:51:00,
2013-05-26 17:56:00,76.8,59.4,30.14,ESE,118,4.6,4.6,55,0.00,SCT,,0.00,0.0,WeatherDisplay:10.37,2013-05-26 21:56:00,
2013-05-26 18:01:00,76.7,60.3,30.14,SSE,162,2.3,2.3,57,0.00,SCT,,0.00,0.0,WeatherDisplay:10.37,2013-05-26 22:01:00,
2013-05-26 18:06:00,76.6,59.7,30.14,South,178,6.9,6.9,56,0.00,SCT,,0.00,0.0,WeatherDisplay:10.37,2013-05-26 22:06:00,
2013-05-26 18:11:00,76.4,58.0,30.14,SSW,210,8.1,8.1,53,0.00,SCT,,0.00,0.0,WeatherDisplay:10.37,2013-05-26 22:11:00,
2013-05-26 18:16:00,76.2,59.4,30.14,South,172,4.6,4.6,56,0.00,SCT,,0.00,0.0,WeatherDisplay:10.37,2013-05-26 22:16:00,
2013-05-26 18:21:00,76.1,58.8,30.14,SSW,194,1.2,1.2,55,0.00,SCT,,0.00,0.0,WeatherDisplay:10.37,2013-05-26 22:21:00,
2013-05-26 18:26:00,75.9,59.6,30.14,SSW,195,2.3,2.3,57,0.00,SCT,,0.00,0.0,WeatherDisplay:10.37,2013-05-26 22:26:00,
2013-05-26 18:31:00,75.7,58.9,30.13,South,189,3.5,3.5,56,0.00,SCT,,0.00,0.0,WeatherDisplay:10.37,2013-05-26 22:31:00,
2013-05-26 18:36:00,75.5,59.7,30.13,SW,214,2.3,2.3,58,0.00,SCT,,0.00,0.0,WeatherDisplay:10.37,2013-05-26 22:36:00,
2013-05-26 18:41:00,75.3,60.5,30.13,SSE,165,9.0,9.0,60,0.00,SCT,,0.00,0.0,WeatherDisplay:10.37,2013-05-26 22:41:00,
2013-05-26 18:46:00,75.2,59.9,30.13,SSW,199,2.3,2.3,59,0.00,SCT,,0.00,0.0,WeatherDisplay:10.37,2013-05-26 22:46:00,
2013-05-26 18:51:00,75.1,60.3,30.13,SE,139,2.3,2.3,60,0.00,SCT,,0.00,0.0,WeatherDisplay:10.37,2013-05-26 22:51:00,
2013-05-26 18:56:00,74.9,60.5,30.13,SSE,157,4.6,4.6,61,0.00,SCT,,0.00,0.0,WeatherDisplay:10.37,2013-05-26 22:56:00,
2013-05-26 19:01:00,74.8,59.5,30.14,South,189,5.8,5.8,59,0.00,SCT,,0.00,0.0,WeatherDisplay:10.37,2013-05-26 23:01:00,
2013-05-26 19:06:00,74.7,59.9,30.14,South,179,3.5,3.5,60,0.00,SCT,,0.00,0.0,WeatherDisplay:10.37,2013-05-26 23:06:00,
2013-05-26 19:11:00,74.6,59.3,30.14,South,187,3.5,3.5,59,0.00,SCT,,0.00,0.0,WeatherDisplay:10.37,2013-05-26 23:11:00,
2013-05-26 19:16:00,74.4,60.1,30.14,South,184,3.5,3.5,61,0.00,SCT,,0.00,0.0,WeatherDisplay:10.37,2013-05-26 23:16:00,
2013-05-26 19:21:00,74.3,59.5,30.14,WSW,237,2.3,2.3,60,0.00,SCT,,0.00,0.0,WeatherDisplay:10.37,2013-05-26 23:21:00,
2013-05-26 19:26:00,74.2,60.3,30.14,WSW,238,1.2,0.0,62,0.00,SCT,,0.00,0.0,WeatherDisplay:10.37,2013-05-26 23:26:00,
2013-05-26 19:31:00,74.0,60.2,30.14,South,187,3.5,3.5,62,0.00,SCT,,0.00,0.0,WeatherDisplay:10.37,2013-05-26 23:31:00,
2013-05-26 19:36:00,73.8,60.0,30.15,SE,130,4.6,4.6,62,0.00,SCT,,0.00,0.0,WeatherDisplay:10.37,2013-05-26 23:36:00,
2013-05-26 19:41:00,73.6,59.8,30.15,SSE,154,1.2,1.2,62,0.00,SCT,,0.00,0.0,WeatherDisplay:10.37,2013-05-26 23:41:00,
2013-05-26 19:46:00,73.5,59.7,30.15,SSE,157,3.5,3.5,62,0.00,SCT,,0.00,0.0,WeatherDisplay:10.37,2013-05-26 23:46:00,
2013-05-26 19:51:00,73.3,60.4,30.15,SSE,149,0.0,0.3,64,0.00,SCT,,0.00,0.0,WeatherDisplay:10.37,2013-05-26 23:51:00,
2013-05-26 19:56:00,73.1,60.6,30.15,SSE,150,1.2,1.2,65,0.00,SCT,,0.00,0.0,WeatherDisplay:10.37,2013-05-26 23:56:00,
2013-05-26 20:01:00,72.9,60.9,30.15,SSE,151,0.0,0.0,66,0.00,FEW,,0.00,0.0,WeatherDisplay:10.37,2013-05-27 00:01:00,
2013-05-26 20:06:00,72.7,60.7,30.16,SSE,150,0.0,0.0,66,0.00,FEW,,0.00,0.0,WeatherDisplay:10.37,2013-05-27 00:06:00,
2013-05-26 20:11:00,72.4,60.8,30.15,SSE,149,1.2,1.2,67,0.00,FEW,,0.00,0.0,WeatherDisplay:10.37,2013-05-27 00:11:00,
2013-05-26 20:16:00,72.1,61.4,30.15,SSE,149,0.0,0.0,69,0.00,FEW,,0.00,0.0,WeatherDisplay:10.37,2013-05-27 00:16:00,
2013-05-26 20:21:00,71.7,61.0,30.15,SSE,150,0.0,0.0,69,0.00,FEW,,0.00,0.0,WeatherDisplay:10.37,2013-05-27 00:21:00,
2013-05-26 20:26:00,71.3,61.4,30.15,SSE,150,1.2,0.0,71,0.00,FEW,,0.00,0.0,WeatherDisplay:10.37,2013-05-27 00:26:00,
2013-05-26 20:31:00,70.9,60.6,30.16,SSE,151,0.0,0.0,70,0.00,FEW,,0.00,0.0,WeatherDisplay:10.37,2013-05-27 00:31:00,
2013-05-26 20:36:00,70.7,61.2,30.16,SSE,150,1.2,0.0,72,0.00,FEW,,0.00,0.0,WeatherDisplay:10.37,2013-05-27 00:36:00,
2013-05-26 20:41:00,70.4,61.3,30.16,SSE,150,1.2,0.0,73,0.00,FEW,,0.00,0.0,WeatherDisplay:10.37,2013-05-27 00:41:00,
2013-05-26 20:46:00,70.2,61.1,30.16,SSE,150,0.0,0.0,73,0.00,FEW,,0.00,0.0,WeatherDisplay:10.37,2013-05-27 00:46:00,
2013-05-26 20:51:00,70.0,61.3,30.16,SSE,151,0.0,0.0,74,0.00,FEW,,0.00,0.0,WeatherDisplay:10.37,2013-05-27 00:51:00,
2013-05-26 20:56:00,69.7,61.4,30.16,SSE,153,1.2,0.0,75,0.00,FEW,,0.00,0.0,WeatherDisplay:10.37,2013-05-27 00:56:00,
2013-05-26 21:01:00,69.3,61.0,30.16,SSE,153,1.2,0.0,75,0.00,CLR,,0.00,0.0,WeatherDisplay:10.37,2013-05-27 01:01:00,
2013-05-26 21:06:00,69.0,61.1,30.16,SSE,154,1.2,0.0,76,0.00,CLR,,0.00,0.0,WeatherDisplay:10.37,2013-05-27 01:06:00,
2013-05-26 21:11:00,68.8,61.3,30.16,SSE,161,1.2,0.0,77,0.00,CLR,,0.00,0.0,WeatherDisplay:10.37,2013-05-27 01:11:00,
2013-05-26 21:16:00,68.5,61.4,30.16,SSE,162,0.0,0.0,78,0.00,CLR,,0.00,0.0,WeatherDisplay:10.37,2013-05-27 01:16:00,
2013-05-26 21:21:00,68.2,61.4,30.16,SSE,162,0.0,0.0,79,0.00,CLR,,0.00,0.0,WeatherDisplay:10.37,2013-05-27 01:21:00,
2013-05-26 21:26:00,68.0,61.6,30.16,SSE,162,0.0,0.0,80,0.00,CLR,,0.00,0.0,WeatherDisplay:10.37,2013-05-27 01:26:00,
2013-05-26 21:31:00,67.8,61.8,30.16,SSE,161,0.0,0.0,81,0.00,CLR,,0.00,0.0,WeatherDisplay:10.37,2013-05-27 01:31:00,
2013-05-26 21:36:00,67.6,61.6,30.17,SSE,162,0.0,0.0,81,0.00,CLR,,0.00,0.0,WeatherDisplay:10.37,2013-05-27 01:36:00,
2013-05-26 21:41:00,67.5,61.8,30.17,SSE,161,0.0,0.0,82,0.00,CLR,,0.00,0.0,WeatherDisplay:10.37,2013-05-27 01:41:00,
2013-05-26 21:46:00,67.3,61.6,30.17,SSE,162,0.0,0.0,82,0.00,CLR,,0.00,0.0,WeatherDisplay:10.37,2013-05-27 01:46:00,
2013-05-26 21:51:00,67.2,61.9,30.17,SSE,162,0.0,0.0,83,0.00,CLR,,0.00,0.0,WeatherDisplay:10.37,2013-05-27 01:51:00,
2013-05-26 21:56:00,67.0,62.0,30.17,SSE,161,0.0,0.0,84,0.00,CLR,,0.00,0.0,WeatherDisplay:10.37,2013-05-27 01:56:00,
2013-05-26 22:01:00,66.8,61.8,30.17,SSE,161,0.0,0.0,84,0.00,CLR,,0.00,0.0,WeatherDisplay:10.37,2013-05-27 02:01:00,
2013-05-26 22:06:00,66.7,62.0,30.18,SSE,161,0.0,0.0,85,0.00,CLR,,0.00,0.0,WeatherDisplay:10.37,2013-05-27 02:06:00,
2013-05-26 22:11:00,66.6,62.3,30.18,SSE,162,1.2,0.0,86,0.00,CLR,,0.00,0.0,WeatherDisplay:10.37,2013-05-27 02:11:00,
2013-05-26 22:16:00,66.4,62.1,30.18,SSE,162,1.2,1.2,86,0.00,CLR,,0.00,0.0,WeatherDisplay:10.37,2013-05-27 02:16:00,
2013-05-26 22:21:00,66.2,61.9,30.18,SSE,162,0.0,0.0,86,0.00,CLR,,0.00,0.0,WeatherDisplay:10.37,2013-05-27 02:21:00,
2013-05-26 22:26:00,66.0,61.7,30.18,SSE,162,0.0,0.0,86,0.00,CLR,,0.00,0.0,WeatherDisplay:10.37,2013-05-27 02:26:00,
2013-05-26 22:31:00,65.8,61.8,30.18,SSE,162,0.0,0.0,87,0.00,CLR,,0.00,0.0,WeatherDisplay:10.37,2013-05-27 02:31:00,
2013-05-26 22:36:00,65.7,61.7,30.18,SSE,162,0.0,0.1,87,0.00,CLR,,0.00,0.0,WeatherDisplay:10.37,2013-05-27 02:36:00,
2013-05-26 22:41:00,65.6,61.6,30.18,SSE,162,0.0,0.0,87,0.00,CLR,,0.00,0.0,WeatherDisplay:10.37,2013-05-27 02:41:00,
2013-05-26 22:46:00,65.5,61.9,30.18,SSE,162,0.0,0.0,88,0.00,CLR,,0.00,0.0,WeatherDisplay:10.37,2013-05-27 02:46:00,
2013-05-26 22:51:00,65.4,62.1,30.18,SSE,162,0.0,0.0,89,0.00,CLR,,0.00,0.0,WeatherDisplay:10.37,2013-05-27 02:51:00,
2013-05-26 22:56:00,65.3,61.7,30.18,SSE,162,0.0,0.0,88,0.00,CLR,,0.00,0.0,WeatherDisplay:10.37,2013-05-27 02:56:00,
2013-05-26 23:01:00,65.1,61.5,30.18,SSE,162,0.0,0.0,88,0.00,FEW,,0.00,0.0,WeatherDisplay:10.37,2013-05-27 03:01:00,
2013-05-26 23:06:00,65.0,61.7,30.18,SSE,162,0.0,0.0,89,0.00,FEW,,0.00,0.0,WeatherDisplay:10.37,2013-05-27 03:06:00,
2013-05-26 23:11:00,64.9,61.9,30.18,SSE,162,0.0,0.0,90,0.00,FEW,,0.00,0.0,WeatherDisplay:10.37,2013-05-27 03:11:00,
2013-05-26 23:16:00,64.9,61.9,30.19,SSE,162,0.0,0.0,90,0.00,FEW,,0.00,0.0,WeatherDisplay:10.37,2013-05-27 03:16:00,
2013-05-26 23:21:00,64.7,61.7,30.19,SSE,162,0.0,0.0,90,0.00,FEW,,0.00,0.0,WeatherDisplay:10.37,2013-05-27 03:21:00,
2013-05-26 23:26:00,64.7,61.7,30.19,SSE,162,0.0,0.0,90,0.00,FEW,,0.00,0.0,WeatherDisplay:10.37,2013-05-27 03:26:00,
2013-05-26 23:31:00,64.5,61.5,30.19,SSE,162,0.0,0.0,90,0.00,FEW,,0.00,0.0,WeatherDisplay:10.37,2013-05-27 03:31:00,
2013-05-26 23:36:00,64.5,61.8,30.19,SSE,162,0.0,0.0,91,0.00,FEW,,0.00,0.0,WeatherDisplay:10.37,2013-05-27 03:36:00,
2013-05-26 23:41:00,64.4,61.7,30.19,SSE,162,0.0,0.0,91,0.00,FEW,,0.00,0.0,WeatherDisplay:10.37,2013-05-27 03:41:00,
2013-05-26 23:46:00,64.3,61.6,30.19,SSE,162,0.0,0.0,91,0.00,FEW,,0.00,0.0,WeatherDisplay:10.37,2013-05-27 03:46:00,
2013-05-26 23:51:00,64.2,61.8,30.19,SSE,162,0.0,0.0,92,0.00,FEW,,0.00,0.0,WeatherDisplay:10.37,2013-05-27 03:51:00,
2013-05-26 23:56:00,64.1,61.7,30.19,SSE,162,0.0,0.0,92,0.00,FEW,,0.00,0.0,WeatherDisplay:10.37,2013-05-27 03:56:00,